TimeCST,TemperatureF,Dew PointF,Humidity,Sea Level PressureIn,VisibilityMPH,Wind Direction,Wind SpeedMPH,Gust SpeedMPH,PrecipitationIn,Events,Conditions,WindDirDegrees,DateUTC
12:53 AM,35.1,26.1,70,30.35,10.0,ENE,6.9,-,N/A,,Clear,60,2012-12-05 06:53:00
1:53 AM,34.0,26.1,73,30.36,10.0,ENE,9.2,-,N/A,,Clear,60,2012-12-05 07:53:00
2:53 AM,33.1,25.0,72,30.37,10.0,ENE,10.4,-,N/A,,Clear,60,2012-12-05 08:53:00
3:53 AM,30.9,23.0,72,30.35,10.0,ENE,4.6,-,N/A,,Clear,70,2012-12-05 09:53:00
4:53 AM,30.0,23.0,75,30.35,10.0,East,5.8,-,N/A,,Clear,80,2012-12-05 10:53:00
5:53 AM,28.9,21.9,75,30.36,10.0,East,4.6,-,N/A,,Clear,80,2012-12-05 11:53:00
6:53 AM,28.9,21.9,75,30.35,10.0,ESE,5.8,-,N/A,,Clear,110,2012-12-05 12:53:00
8:53 AM,32.0,24.1,73,30.35,10.0,ESE,4.6,-,N/A,,Clear,120,2012-12-05 14:53:00
9:53 AM,36.0,26.1,67,30.36,10.0,SE,8.1,-,N/A,,Clear,130,2012-12-05 15:53:00
10:53 AM,41.0,28.0,60,30.33,10.0,SSE,9.2,-,N/A,,Clear,150,2012-12-05 16:53:00
11:53 AM,44.1,28.9,55,30.29,10.0,SE,10.4,-,N/A,,Clear,140,2012-12-05 17:53:00
12:53 PM,46.9,30.0,52,30.24,10.0,SSE,10.4,-,N/A,,Clear,150,2012-12-05 18:53:00
1:53 PM,50.0,30.9,48,30.20,10.0,SSE,10.4,-,N/A,,Clear,150,2012-12-05 19:53:00
2:53 PM,50.0,30.9,48,30.17,10.0,SSE,11.5,-,N/A,,Clear,150,2012-12-05 20:53:00
3:53 PM,50.0,30.9,48,30.15,10.0,SSE,12.7,-,N/A,,Clear,150,2012-12-05 21:53:00
4:53 PM,48.9,32.0,52,30.15,10.0,SSE,12.7,-,N/A,,Clear,150,2012-12-05 22:53:00
5:53 PM,48.0,32.0,54,30.14,10.0,SE,10.4,-,N/A,,Clear,140,2012-12-05 23:53:00
6:53 PM,45.0,33.1,63,30.12,10.0,SSE,11.5,-,N/A,,Clear,150,2012-12-06 00:53:00
7:53 PM,46.0,33.1,61,30.10,10.0,SSE,13.8,-,N/A,,Clear,150,2012-12-06 01:53:00
8:53 PM,45.0,34.0,65,30.06,10.0,SSE,15.0,-,N/A,,Clear,150,2012-12-06 02:53:00
9:53 PM,45.0,34.0,65,30.05,10.0,SSE,10.4,21.9,N/A,,Clear,160,2012-12-06 03:53:00
10:53 PM,46.0,34.0,63,30.04,10.0,SSE,11.5,26.5,N/A,,Clear,160,2012-12-06 04:53:00
11:53 PM,45.0,34.0,65,30.02,10.0,South,12.7,19.6,N/A,,Clear,170,2012-12-06 05:53:00